Tracking 18186 objects as of 29-March-2017
HD Live streaming from Space Station
objects crossing your sky now

USA 121

Track USA 121 now!
10-day predictions
USA 121 is classified as:


NORAD ID: 23908
Int'l Code: 1996-029C
Perigee: 670.9 km
Apogee: 1,555.6 km
Inclination: 63.4 °
Period: 107.4 minutes
Semi major axis: 7484 km
RCS: Unknown
Launch date: May 12, 1996
Source: United States (US)
Launch site: AIR FORCE WESTERN TEST RANGE (AFWTR)
Your satellite tracking list
Your tracking list is empty





NASA's NSSDC Master Catalog

Two Line Element Set (TLE):
1 23908U 96029C   17078.77450071 0.00000050  00000-0  31959-4 0    01
2 23908  63.3770 283.3081 0591000  11.5973 348.4027 13.40853274    01
Source of the keplerian elements: McCants